Tracking 19570 objects as of 22-Feb-2019
HD Live streaming from Space Station
objects crossing your sky now

NSAT 110

Track NSAT 110 now!
NSAT 110 is classified as:


NORAD ID: 26559
Int'l Code: 2000-060A
Perigee: 36,075.6 km
Apogee: 36,129.6 km
Inclination: 0.1 °
Period: 1,451.9 minutes
Semi major axis: 42473 km
RCS: 12.5892 m2 (large)
Launch date: October 6, 2000
Source: Japan (JPN)
Launch site: FRENCH GUIANA (FRGUI)

24 Ku-band; voice and video communications to Japan.
aabbcc
Your satellite tracking list
Your tracking list is empty




NASA's NSSDC Master Catalog

Two Line Element Set (TLE):
1 26559U 00060A   19052.30556181 -.00000215 +00000-0 +00000-0 0  9998
2 26559 000.1286 099.7166 0006353 267.5926 195.4568 00.99180067067313
Source of the keplerian elements: AFSPC